This demonstration page uses our WeatherBlox Daily Observations layout. Learn more.

Left ArrowRight Arrow

38.20091, -84.87328

Hourly Observations for August 11, 2016

Temp ( °F °C ) Dew Point ( °F °C ) Humidity (%) Winds ( mph kmh ) Pressure ( in mb ) Visibility ( mi km ) Precip ( " mm )
12:53 am 00:53 Clear 80 26.7 72 22.2 76 76 Calm 30.06 1018 10 16 0.00 0.00
1:53 am 01:53 Mostly Cloudy 78 25.6 72 22.2 82 82 Calm 30.06 1018 10 16 0.00 0.00
2:53 am 02:53 Mostly Cloudy 78 25.6 72 22.2 82 82 Calm 30.06 1018 10 16 0.00 0.00
3:53 am 03:53 Mostly Clear 77 25 72 22.2 85 85 SE 3 6 30.05 1018 10 16 0.00 0.00
4:53 am 04:53 Clear 77 25 72 22.2 85 85 S 3 6 30.05 1018 10 16 0.00 0.00
5:53 am 05:53 Mostly Cloudy 76 24.4 71 21.7 85 85 SSW 3 6 30.05 1018 10 16 0.00 0.00
6:53 am 06:53 Cloudy 77 25 71 21.7 82 82 SSE 3 6 30.06 1018 10 16 0.00 0.00
7:53 am 07:53 Sunny 78 25.6 71 21.7 79 79 S 6 9 30.06 1018 10 16 0.00 0.00
8:53 am 08:53 Cloudy 80 26.7 72 22.2 76 76 S 8 13 30.08 1019 10 16 0.00 0.00
9:53 am 09:53 Cloudy 81 27.2 72 22.2 74 74 S 8 13 30.08 1019 10 16 0.00 0.00
10:53 am 10:53 Cloudy 83 28.3 72 22.2 70 70 S 12 19 30.09 1019 10 16 0.00 0.00
11:53 am 11:53 Mostly Cloudy 87 30.6 73 22.8 63 63 SSW 10 17 30.07 1018 10 16 0.00 0.00
12:53 pm 12:53 Mostly Cloudy 87 30.6 73 22.8 63 63 S 8 13 30.06 1018 10 16 0.00 0.00
1:53 pm 13:53 Mostly Cloudy 88 31.1 73 22.8 61 61 SSW 7 11 30.05 1018 10 16 0.00 0.00
2:53 pm 14:53 Mostly Cloudy 90 32.2 73 22.8 58 58 S 10 17 30.03 1017 10 16 0.00 0.00
3:53 pm 15:53 Mostly Cloudy 90 32.2 72 22.2 56 56 SSW 14 22 30.01 1016 10 16 0.00 0.00
4:53 pm 16:53 Mostly Sunny 90 32.2 71 21.7 54 54 SW 12 19 30.00 1016 10 16 0.00 0.00
5:53 pm 17:53 Partly Cloudy 89 31.7 72 22.2 57 57 S 9 15 29.98 1015 10 16 0.00 0.00
6:53 pm 18:53 Sunny 88 31.1 71 21.7 57 57 SSW 13 20 29.98 1015 10 16 0.00 0.00
7:53 pm 19:53 Sunny 86 30 71 21.7 61 61 SSW 7 11 29.97 1015 10 16 0.00 0.00
8:53 pm 20:53 Clear 83 28.3 73 22.8 72 72 Calm 29.96 1015 10 16 0.00 0.00
9:53 pm 21:53 Clear 80 26.7 73 22.8 79 79 Calm 29.97 1015 10 16 0.00 0.00
10:53 pm 22:53 Clear 80 26.7 72 22.2 76 76 SSE 6 9 29.96 1014 10 16 0.00 0.00
11:53 pm 23:53 Clear 79 26.1 72 22.2 79 79 SSE 6 9 29.94 1014 10 16 0.00 0.00

Powered by AerisWeather